• In Romania
  • List of Countries
  • For 7 days
  • Water Temperature
  • Satellite Maps
  • Weather Map
  • Weather Widgets
  • user-avatar
    Login

    Hourly Weather Wien

    Today, 23 June, Friday

    Time Temperature Precipitation Wind Pressure Humidity
    00:00 +25°C° 0 mm 3 mps 741 mmHg 70%
    01:00 +25°C° 0 mm 3 mps 741 mmHg 71%
    02:00 +25°C° 0 mm 3 mps 741 mmHg 71%
    03:00 +25°C° 0 mm 3 mps 740 mmHg 72%
    04:00 +24°C° 0 mm 3 mps 740 mmHg 73%
    05:00 +25°C° 0 mm 4 mps 740 mmHg 69%
    06:00 +26°C° 0 mm 5 mps 740 mmHg 65%
    07:00 +27°C° 0 mm 6 mps 740 mmHg 61%
    08:00 +28°C° 0.1 mm 7 mps 740 mmHg 58%
    09:00 +29°C° 0.1 mm 8 mps 741 mmHg 55%
    10:00 +31°C° 0.1 mm 9 mps 741 mmHg 51%
    11:00 +32°C° 0.1 mm 9 mps 741 mmHg 49%
    12:00 +32°C° 0.1 mm 9 mps 741 mmHg 46%
    13:00 +32°C° 0.1 mm 9 mps 741 mmHg 44%
    14:00 +32°C° 0 mm 8 mps 741 mmHg 45%
    15:00 +32°C° 0 mm 8 mps 742 mmHg 46%
    16:00 +30°C° 0 mm 7 mps 742 mmHg 47%
    17:00 +29°C° 0 mm 6 mps 742 mmHg 53%
    18:00 +27°C° 0 mm 5 mps 742 mmHg 59%
    19:00 +26°C° 0 mm 4 mps 742 mmHg 65%
    20:00 +25°C° 0 mm 3 mps 742 mmHg 71%
    21:00 +22°C° 0 mm 3 mps 743 mmHg 76%
    22:00 +21°C° 0 mm 3 mps 743 mmHg 82%
    23:00 +20°C° 0 mm 3 mps 744 mmHg 84%

    Tomorrow, 24 June, Saturday

    Time Temperature Precipitation Wind Pressure Humidity
    00:00 +19°C° 0 mm 3 mps 744 mmHg 86%
    01:00 +19°C° 0 mm 3 mps 744 mmHg 88%
    02:00 +18°C° 0 mm 3 mps 744 mmHg 90%
    03:00 +18°C° 0 mm 2 mps 744 mmHg 91%
    04:00 +17°C° 0 mm 2 mps 744 mmHg 92%
    05:00 +19°C° 0 mm 3 mps 744 mmHg 84%
    06:00 +21°C° 0 mm 3 mps 744 mmHg 76%
    07:00 +22°C° 0 mm 4 mps 745 mmHg 68%
    08:00 +25°C° 0 mm 4 mps 745 mmHg 63%
    09:00 +26°C° 0 mm 4 mps 745 mmHg 57%
    10:00 +28°C° 0 mm 5 mps 745 mmHg 51%
    11:00 +29°C° 0.1 mm 4 mps 744 mmHg 48%
    12:00 +30°C° 0.1 mm 4 mps 744 mmHg 45%
    13:00 +32°C° 0.1 mm 4 mps 743 mmHg 42%
    14:00 +32°C° 0.1 mm 4 mps 743 mmHg 42%
    15:00 +32°C° 0.1 mm 4 mps 743 mmHg 42%
    16:00 +31°C° 0.1 mm 3 mps 742 mmHg 42%
    17:00 +30°C° 0.1 mm 3 mps 742 mmHg 50%
    18:00 +28°C° 0.1 mm 2 mps 742 mmHg 59%
    19:00 +26°C° 0.1 mm 2 mps 742 mmHg 67%
    20:00 +25°C° 0.2 mm 2 mps 742 mmHg 71%
    21:00 +24°C° 0.2 mm 2 mps 742 mmHg 75%
    22:00 +21°C° 0.2 mm 2 mps 742 mmHg 79%
    23:00 +21°C° 0.1 mm 2 mps 742 mmHg 80%

    Day after tomorrow, 25 June, Sunday

    Time Temperature Precipitation Wind Pressure Humidity
    00:00 +21°C° 0.1 mm 2 mps 742 mmHg 82%
    01:00 +20°C° 0.1 mm 2 mps 742 mmHg 83%
    02:00 +20°C° 0.5 mm 3 mps 742 mmHg 84%
    03:00 +20°C° 0.5 mm 3 mps 743 mmHg 85%
    04:00 +19°C° 0.5 mm 3 mps 743 mmHg 86%
    05:00 +19°C° 0.2 mm 3 mps 743 mmHg 86%
    06:00 +19°C° 0.2 mm 2 mps 743 mmHg 86%
    07:00 +19°C° 0.2 mm 2 mps 743 mmHg 85%
    08:00 +21°C° 0 mm 2 mps 743 mmHg 78%
    09:00 +24°C° 0 mm 2 mps 743 mmHg 71%
    10:00 +25°C° 0 mm 2 mps 743 mmHg 64%
    11:00 +26°C° 0.1 mm 2 mps 743 mmHg 60%
    12:00 +27°C° 0.1 mm 2 mps 742 mmHg 56%
    13:00 +28°C° 0.1 mm 3 mps 742 mmHg 52%
    14:00 +27°C° 0.3 mm 3 mps 742 mmHg 57%
    15:00 +26°C° 0.3 mm 3 mps 742 mmHg 63%
    16:00 +25°C° 0.3 mm 4 mps 742 mmHg 68%
    17:00 +25°C° 0 mm 3 mps 742 mmHg 70%
    18:00 +24°C° 0 mm 3 mps 742 mmHg 72%
    19:00 +24°C° 0 mm 3 mps 742 mmHg 73%
    20:00 +22°C° 0 mm 3 mps 743 mmHg 76%
    21:00 +21°C° 0 mm 3 mps 743 mmHg 78%
    22:00 +19°C° 0 mm 4 mps 743 mmHg 81%
    23:00 +19°C° 0 mm 3 mps 743 mmHg 83%

    26 June, Monday

    Time Temperature Precipitation Wind Pressure Humidity
    00:00 +18°C° 0 mm 3 mps 743 mmHg 85%
    01:00 +17°C° 0 mm 3 mps 743 mmHg 87%
    02:00 +17°C° 0 mm 3 mps 743 mmHg 88%
    03:00 +16°C° 0 mm 3 mps 743 mmHg 89%
    04:00 +16°C° 0 mm 2 mps 743 mmHg 90%
    05:00 +17°C° 0 mm 3 mps 744 mmHg 84%
    06:00 +19°C° 0 mm 3 mps 744 mmHg 77%
    07:00 +21°C° 0 mm 3 mps 744 mmHg 71%
    08:00 +22°C° 0 mm 3 mps 744 mmHg 66%
    09:00 +24°C° 0 mm 3 mps 744 mmHg 60%
    10:00 +26°C° 0 mm 3 mps 744 mmHg 55%
    11:00 +26°C° 0 mm 2 mps 744 mmHg 53%
    12:00 +27°C° 0 mm 2 mps 744 mmHg 52%
    13:00 +28°C° 0 mm 1 mps 744 mmHg 50%
    14:00 +28°C° 0 mm 1 mps 743 mmHg 50%
    15:00 +28°C° 0 mm 1 mps 743 mmHg 50%
    16:00 +29°C° 0 mm 1 mps 743 mmHg 49%
    17:00 +28°C° 0 mm 1 mps 743 mmHg 55%
    18:00 +26°C° 0 mm 2 mps 743 mmHg 61%
    19:00 +25°C° 0 mm 2 mps 743 mmHg 66%
    20:00 +24°C° 0 mm 2 mps 743 mmHg 70%
    21:00 +21°C° 0 mm 2 mps 743 mmHg 73%
    22:00 +20°C° 0 mm 2 mps 743 mmHg 77%
    23:00 +20°C° 0 mm 3 mps 742 mmHg 78%

    27 June, Tuesday

    Time Temperature Precipitation Wind Pressure Humidity
    00:00 +19°C° 0 mm 3 mps 742 mmHg 79%
    01:00 +18°C° 0 mm 3 mps 742 mmHg 80%
    02:00 +18°C° 0 mm 3 mps 741 mmHg 81%
    03:00 +18°C° 0 mm 3 mps 741 mmHg 81%
    04:00 +18°C° 0 mm 3 mps 741 mmHg 81%
    05:00 +20°C° 0 mm 4 mps 741 mmHg 76%
    06:00 +22°C° 0 mm 5 mps 741 mmHg 71%
    07:00 +23°C° 0 mm 6 mps 741 mmHg 65%
    08:00 +26°C° 0 mm 6 mps 740 mmHg 61%
    09:00 +28°C° 0 mm 6 mps 740 mmHg 56%
    10:00 +30°C° 0 mm 6 mps 740 mmHg 51%
    11:00 +30°C° 0.2 mm 6 mps 740 mmHg 51%
    12:00 +32°C° 0.2 mm 5 mps 739 mmHg 51%
    13:00 +32°C° 0.2 mm 5 mps 739 mmHg 51%
    14:00 +33°C° 0.6 mm 4 mps 738 mmHg 51%
    15:00 +33°C° 0.6 mm 4 mps 738 mmHg 50%
    16:00 +33°C° 0.6 mm 3 mps 738 mmHg 50%
    17:00 +31°C° 0.1 mm 3 mps 738 mmHg 56%
    18:00 +30°C° 0.1 mm 2 mps 738 mmHg 62%
    19:00 +28°C° 0.1 mm 2 mps 737 mmHg 68%
    20:00 +27°C° 0.1 mm 2 mps 737 mmHg 73%
    21:00 +25°C° 0.1 mm 2 mps 737 mmHg 78%
    22:00 +23°C° 0.1 mm 2 mps 738 mmHg 83%
    23:00 +21°C° 0 mm 2 mps 738 mmHg 84%

    28 June, Wednesday

    Time Temperature Precipitation Wind Pressure Humidity
    00:00 +21°C° 0 mm 2 mps 737 mmHg 85%
    01:00 +21°C° 0 mm 1 mps 737 mmHg 86%
    02:00 +21°C° 0 mm 1 mps 737 mmHg 87%
    03:00 +21°C° 0 mm 1 mps 737 mmHg 88%
    04:00 +20°C° 0 mm 1 mps 737 mmHg 89%
    05:00 +22°C° 0 mm 1 mps 737 mmHg 83%
    06:00 +24°C° 0 mm 1 mps 737 mmHg 78%
    07:00 +25°C° 0 mm 1 mps 737 mmHg 72%
    08:00 +27°C° 0 mm 2 mps 737 mmHg 67%
    09:00 +28°C° 0 mm 2 mps 737 mmHg 61%
    10:00 +30°C° 0 mm 2 mps 736 mmHg 56%
    11:00 +32°C° 0 mm 4 mps 736 mmHg 51%
    12:00 +34°C° 0 mm 5 mps 735 mmHg 46%
    13:00 +35°C° 0 mm 6 mps 734 mmHg 41%
    14:00 +35°C° 0.1 mm 6 mps 734 mmHg 41%
    15:00 +35°C° 0.1 mm 7 mps 733 mmHg 41%
    16:00 +35°C° 0.1 mm 7 mps 732 mmHg 40%
    17:00 +34°C° 0 mm 7 mps 732 mmHg 44%
    18:00 +32°C° 0 mm 6 mps 731 mmHg 47%
    19:00 +30°C° 0 mm 6 mps 731 mmHg 50%
    20:00 +29°C° 0 mm 6 mps 731 mmHg 50%
    21:00 +27°C° 0 mm 6 mps 731 mmHg 51%
    22:00 +26°C° 0 mm 6 mps 731 mmHg 51%
    23:00 +26°C° 0 mm 6 mps 731 mmHg 52%
    Show more